Location: Capvern
(43.1036°N, 0.3160°E)
Time: 22:37:59
(UTC+00:00)

Landsat 5 - Pass Details

Date: 16 October 2021
Orbit: 528 x 652 km, 98.2° (Epoch: 03 December)

Event Time Altitude Azimuth Distance (km) Brightness Sun altitude
Rises 17:47:24 0° 18° (NNE) 2,877 6.7 -6.8°
Reaches altitude 10° 17:49:37 10° 24° (NNE) 1,987 5.9 -7.2°
Maximum altitude 17:53:51 50° 100° (E) 802 3.8 -8.0°
Drops below altitude 10° 17:58:09 10° 177° (S) 2,030 6.2 -8.8°
Sets 18:00:26 0° 182° (S) 2,945 7.1 -9.2°
